Location: New Plymouth
(39.0670°S, 174.0830°E)
Time: 23:00:48
(UTC+12:00)

NOAA 19 - Pass Details

Date: 22 August 2019
Orbit: 840 x 862 km, 99.2° (Epoch: 22 September)

Event Time Altitude Azimuth Distance (km) Brightness Sun altitude
Rises 06:27:15 0° 324° (NW) 3,389 8.1 -7.5°
Reaches altitude 10° 06:31:09 10° 295° (WNW) 2,468 7.1 -6.7°
Maximum altitude 06:33:26 13° 270° (W) 2,292 6.8 -6.3°
Drops below altitude 10° 06:35:45 10° 245° (WSW) 2,484 7.0 -5.8°
Sets 06:39:43 0° 217° (SW) 3,434 7.9 -5.1°
